Location: Niedergestelen
(46.3129°N, 7.7822°E)
Time: 15:32:42
(UTC+00:00)

BREEZE-M DEB (TANK) - Pass Details

Date: 01 December 2020
Orbit: 306 x 13101 km, 49.6° (Epoch: 27 January)

Event Time Altitude Azimuth Distance (km) Brightness Sun altitude
Rises 15:51:07 0° 258° (WSW) 2,434 7.8 -1.9°
Reaches altitude 10° 15:52:29 10° 260° (W) 1,811 6.9 -2.1°
Maximum altitude 15:56:06 77° 347° (NNW) 949 4.0 -2.6°
Drops below altitude 10° 16:08:11 10° 75° (ENE) 5,710 7.3 -4.5°
Enters shadow 16:13:00 - 76° (ENE) 7,522 7.9 -5.2°
